INJ248 LCPH-LGTS

Flight info

Callsign INJ248
Flight time 1h 40m
Altitude 36000
Route GENOS DCT PEDER DCT EVENO UM601 RDS UL995 RIPLI UN137 SKP/N0385F240 L617 LEKPO
Aircraft B738/M-LGTS/L

Departure

Time 2026-04-21 15:55
Airport Paphos International Airport (LCPH)

Arrival

Time 2026-04-21 17:35
Airport Thessaloniki Macedonia International Airport (LGTS)
Time Latitude Longitude Altitude Speed Heading
2026-04-21 15:41 34.71343 32.48769 49 ft 0 kts 155°
2026-04-21 15:47 34.71346 32.48767 49 ft 2 kts 155°
2026-04-21 15:48 34.71360 32.48759 49 ft 3 kts 146°
2026-04-21 15:48 34.71374 32.48743 49 ft 3 kts 128°
2026-04-21 15:48 34.71384 32.48722 49 ft 3 kts 109°
2026-04-21 15:48 34.71387 32.48698 49 ft 3 kts 90°
2026-04-21 15:49 34.71384 32.48674 49 ft 3 kts 73°
2026-04-21 15:49 34.71380 32.48661 49 ft 0 kts 66°
2026-04-21 15:50 34.71393 32.48681 49 ft 9 kts 50°
2026-04-21 15:51 34.71427 32.48740 49 ft 6 kts 60°
2026-04-21 15:51 34.71446 32.48782 49 ft 10 kts 63°
2026-04-21 15:51 34.71490 32.48900 49 ft 14 kts 66°
2026-04-21 15:51 34.71533 32.48969 49 ft 7 kts 25°
2026-04-21 15:52 34.71575 32.48990 49 ft 6 kts 22°
2026-04-21 15:52 34.71621 32.49024 49 ft 8 kts 52°
2026-04-21 15:52 34.71618 32.49128 49 ft 19 kts 110°
2026-04-21 15:52 34.71560 32.49319 49 ft 28 kts 110°
2026-04-21 15:53 34.71489 32.49553 49 ft 29 kts 110°
2026-04-21 15:53 34.71436 32.49727 49 ft 15 kts 112°
2026-04-21 15:53 34.71378 32.49790 49 ft 8 kts 130°
2026-04-21 15:53 34.71373 32.49843 49 ft 8 kts 56°
2026-04-21 15:54 34.71407 32.49843 49 ft 4 kts 295°
2026-04-21 15:54 34.71416 32.49798 49 ft 6 kts 289°
2026-04-21 15:54 34.71417 32.49792 49 ft 0 kts 289°
2026-04-21 15:54 34.71423 32.49772 49 ft 13 kts 289°
2026-04-21 15:55 34.71534 32.49406 49 ft 80 kts 290°
2026-04-21 15:55 34.71800 32.48528 49 ft 140 kts 290°
2026-04-21 15:55 34.72168 32.47296 406 ft 163 kts 289°
2026-04-21 15:55 34.72493 32.45945 1038 ft 172 kts 276°
2026-04-21 15:56 34.72381 32.44469 1719 ft 181 kts 256°
2026-04-21 15:56 34.72030 32.42968 2424 ft 188 kts 256°
2026-04-21 15:56 34.71679 32.41403 3011 ft 203 kts 255°
2026-04-21 15:56 34.71300 32.39726 3338 ft 227 kts 255°
2026-04-21 15:57 34.70856 32.37772 3819 ft 246 kts 255°
2026-04-21 15:57 34.70391 32.35734 4441 ft 258 kts 255°
2026-04-21 15:57 34.69919 32.33675 5205 ft 264 kts 255°
2026-04-21 15:57 34.69422 32.31512 6030 ft 268 kts 255°
2026-04-21 15:58 34.68919 32.29324 6845 ft 272 kts 255°
2026-04-21 15:58 34.68402 32.27085 7653 ft 276 kts 256°
2026-04-21 15:58 34.67886 32.24850 8433 ft 280 kts 256°
2026-04-21 15:58 34.67352 32.22539 9212 ft 284 kts 256°
2026-04-21 15:59 34.66814 32.20209 10040 ft 285 kts 256°
2026-04-21 15:59 34.66337 32.17854 10791 ft 289 kts 262°
2026-04-21 15:59 34.66159 32.15382 11276 ft 301 kts 271°
2026-04-21 15:59 34.66245 32.12757 11582 ft 320 kts 276°
2026-04-21 16:00 34.66454 32.09982 11868 ft 338 kts 277°
2026-04-21 16:00 34.66683 32.07130 12337 ft 348 kts 276°
2026-04-21 16:00 34.66906 32.04173 13004 ft 353 kts 276°
2026-04-21 16:00 34.67122 32.01189 13705 ft 356 kts 276°
2026-04-21 16:01 34.67334 31.98173 14401 ft 359 kts 276°
2026-04-21 16:01 34.67544 31.95135 15078 ft 362 kts 276°
2026-04-21 16:01 34.67947 31.92112 15731 ft 363 kts 286°
2026-04-21 16:01 34.68876 31.89290 16359 ft 365 kts 298°
2026-04-21 16:02 34.70223 31.86660 16980 ft 368 kts 304°
2026-04-21 16:02 34.71710 31.84096 17590 ft 371 kts 306°
2026-04-21 16:02 34.73258 31.81566 18188 ft 374 kts 307°
2026-04-21 16:02 34.74809 31.79051 18758 ft 376 kts 307°
2026-04-21 16:03 34.76404 31.76465 19324 ft 379 kts 307°
2026-04-21 16:03 34.77969 31.73930 19874 ft 382 kts 307°
2026-04-21 16:03 34.79590 31.71302 20415 ft 385 kts 307°
2026-04-21 16:03 34.81186 31.68714 20916 ft 388 kts 307°
2026-04-21 16:04 34.82824 31.66057 21416 ft 391 kts 307°
2026-04-21 16:04 34.84461 31.63403 21904 ft 393 kts 307°
2026-04-21 16:04 34.86107 31.60731 22375 ft 396 kts 307°
2026-04-21 16:04 34.87765 31.58037 22839 ft 399 kts 307°
2026-04-21 16:05 34.89439 31.55334 23289 ft 401 kts 307°
2026-04-21 16:05 34.91141 31.52595 23733 ft 403 kts 307°
2026-04-21 16:05 34.92820 31.49886 24154 ft 406 kts 307°
2026-04-21 16:05 34.94542 31.47104 24599 ft 408 kts 307°
2026-04-21 16:06 34.96225 31.44379 25017 ft 409 kts 306°
2026-04-21 16:06 34.97950 31.41583 25429 ft 411 kts 306°
2026-04-21 16:06 34.99671 31.38790 25831 ft 413 kts 306°
2026-04-21 16:06 35.01399 31.35981 26215 ft 415 kts 306°
2026-04-21 16:07 35.03132 31.33162 26590 ft 416 kts 306°
2026-04-21 16:07 35.04877 31.30320 26954 ft 418 kts 306°
2026-04-21 16:07 35.06633 31.27458 27308 ft 419 kts 306°
2026-04-21 16:07 35.08366 31.24630 27647 ft 421 kts 306°
2026-04-21 16:08 35.11895 31.18863 28301 ft 424 kts 306°
2026-04-21 16:08 35.13637 31.16013 28609 ft 426 kts 306°
2026-04-21 16:08 35.15447 31.13049 28917 ft 427 kts 306°
2026-04-21 16:09 35.17202 31.10172 29256 ft 427 kts 306°
2026-04-21 16:09 35.18967 31.07278 29719 ft 424 kts 306°
2026-04-21 16:09 35.20739 31.04368 30163 ft 422 kts 306°
2026-04-21 16:09 35.22480 31.01509 30535 ft 421 kts 305°
2026-04-21 16:10 35.24232 30.98626 30933 ft 419 kts 305°
2026-04-21 16:10 35.25949 30.95801 31318 ft 417 kts 305°
2026-04-21 16:10 35.27684 30.92943 31686 ft 416 kts 305°
2026-04-21 16:10 35.29408 30.90101 32039 ft 415 kts 305°
2026-04-21 16:11 35.31130 30.87260 32404 ft 413 kts 305°
2026-04-21 16:11 35.32842 30.84433 32749 ft 412 kts 304°
2026-04-21 16:11 35.34546 30.81616 33094 ft 411 kts 304°
2026-04-21 16:11 35.36227 30.78837 33417 ft 410 kts 304°
2026-04-21 16:12 35.37375 30.76937 33644 ft 409 kts 304°
2026-04-21 16:12 35.39612 30.73230 34070 ft 407 kts 304°
2026-04-21 16:12 35.41272 30.70479 34359 ft 407 kts 304°
2026-04-21 16:12 35.42975 30.67652 34635 ft 406 kts 304°
2026-04-21 16:13 35.44644 30.64882 34919 ft 406 kts 304°
2026-04-21 16:13 35.46329 30.62081 35189 ft 405 kts 304°
2026-04-21 16:13 35.48008 30.59288 35456 ft 405 kts 304°
2026-04-21 16:13 35.49679 30.56507 35721 ft 404 kts 304°
2026-04-21 16:14 35.51334 30.53750 35960 ft 404 kts 304°
2026-04-21 16:14 35.54689 30.48154 35978 ft 407 kts 304°
2026-04-21 16:15 35.58039 30.42557 35981 ft 404 kts 304°
2026-04-21 16:15 35.61352 30.37013 35981 ft 404 kts 304°
2026-04-21 16:16 35.64673 30.31455 35982 ft 404 kts 304°
2026-04-21 16:16 35.68024 30.25860 35982 ft 404 kts 304°
2026-04-21 16:17 35.71346 30.20276 35981 ft 405 kts 304°
2026-04-21 16:17 35.74676 30.14656 35981 ft 405 kts 304°
2026-04-21 16:18 35.77456 30.09954 35982 ft 405 kts 303°
2026-04-21 16:18 35.80755 30.04368 35981 ft 405 kts 303°
2026-04-21 16:19 35.83540 29.98361 35982 ft 403 kts 292°
2026-04-21 16:19 35.85504 29.91900 35983 ft 402 kts 289°
2026-04-21 16:20 35.87324 29.85352 35983 ft 402 kts 288°
2026-04-21 16:20 35.89094 29.78854 35983 ft 402 kts 288°
2026-04-21 16:21 35.90865 29.72286 35985 ft 402 kts 288°
2026-04-21 16:21 35.92628 29.65717 35985 ft 402 kts 288°
2026-04-21 16:22 35.93871 29.61079 35985 ft 404 kts 288°
2026-04-21 16:22 35.95630 29.54507 35987 ft 402 kts 288°
2026-04-21 16:23 35.97388 29.47972 35989 ft 402 kts 288°
2026-04-21 16:23 35.99147 29.41402 35989 ft 402 kts 288°
2026-04-21 16:24 36.00897 29.34846 35989 ft 402 kts 288°
2026-04-21 16:24 36.02644 29.28276 35990 ft 402 kts 288°
2026-04-21 16:25 36.04384 29.21720 35991 ft 402 kts 288°
2026-04-21 16:25 36.06115 29.15184 35991 ft 402 kts 288°
2026-04-21 16:26 36.07876 29.08631 35991 ft 402 kts 288°
2026-04-21 16:26 36.09628 29.02060 35991 ft 402 kts 288°
2026-04-21 16:27 36.11375 28.95472 35991 ft 402 kts 288°
2026-04-21 16:27 36.13100 28.88938 35992 ft 402 kts 287°
2026-04-21 16:28 36.14850 28.82366 35992 ft 402 kts 287°
2026-04-21 16:28 36.16580 28.75790 35985 ft 402 kts 287°
2026-04-21 16:29 36.18301 28.69192 35983 ft 402 kts 287°
2026-04-21 16:29 36.20016 28.62586 35983 ft 402 kts 287°
2026-04-21 16:30 36.21725 28.55987 35978 ft 402 kts 287°
2026-04-21 16:30 36.23423 28.49429 35975 ft 402 kts 287°
2026-04-21 16:31 36.25140 28.42832 35974 ft 402 kts 287°
2026-04-21 16:31 36.26857 28.36199 35973 ft 402 kts 287°
2026-04-21 16:32 36.28551 28.29586 35967 ft 402 kts 287°
2026-04-21 16:32 36.30357 28.22501 35968 ft 402 kts 287°
2026-04-21 16:33 36.32041 28.15873 35969 ft 402 kts 287°
2026-04-21 16:33 36.33729 28.09242 35965 ft 402 kts 288°
2026-04-21 16:34 36.35832 28.02854 35964 ft 403 kts 293°
2026-04-21 16:34 36.38176 27.96514 35965 ft 403 kts 293°
2026-04-21 16:35 36.40473 27.90165 35965 ft 403 kts 292°
2026-04-21 16:35 36.42751 27.83800 35967 ft 403 kts 292°
2026-04-21 16:36 36.45021 27.77428 35968 ft 403 kts 292°
2026-04-21 16:36 36.47288 27.71059 35967 ft 403 kts 292°
2026-04-21 16:37 36.49539 27.64716 35967 ft 403 kts 292°
2026-04-21 16:37 36.51798 27.58329 35966 ft 403 kts 292°
2026-04-21 16:38 36.54056 27.51931 35967 ft 403 kts 292°
2026-04-21 16:38 36.56331 27.45561 35967 ft 403 kts 292°
2026-04-21 16:39 36.58592 27.39189 35965 ft 403 kts 292°
2026-04-21 16:39 36.60827 27.32832 35965 ft 403 kts 292°
2026-04-21 16:40 36.63070 27.26423 35965 ft 403 kts 292°
2026-04-21 16:40 36.65302 27.20028 35965 ft 403 kts 292°
2026-04-21 16:41 36.67157 27.14713 35964 ft 403 kts 292°
2026-04-21 16:41 36.69384 27.08317 35964 ft 403 kts 292°
2026-04-21 16:42 36.72300 27.01052 35963 ft 405 kts 301°
2026-04-21 16:42 36.75296 26.96522 35964 ft 408 kts 310°
2026-04-21 16:43 36.79213 26.91364 35961 ft 408 kts 310°
2026-04-21 16:43 36.83120 26.86231 35961 ft 408 kts 310°
2026-04-21 16:44 36.87024 26.81087 35963 ft 408 kts 310°
2026-04-21 16:44 36.90912 26.75952 35963 ft 408 kts 310°
2026-04-21 16:45 36.94816 26.70786 35959 ft 407 kts 310°
2026-04-21 16:45 36.98688 26.65650 35959 ft 407 kts 310°
2026-04-21 16:46 37.02576 26.60529 35956 ft 407 kts 310°
2026-04-21 16:46 37.06472 26.55386 35956 ft 407 kts 310°
2026-04-21 16:47 37.10370 26.50225 35959 ft 407 kts 310°
2026-04-21 16:47 37.14258 26.45062 35974 ft 408 kts 310°
2026-04-21 16:48 37.18159 26.39871 35985 ft 408 kts 310°
2026-04-21 16:48 37.22024 26.34717 35982 ft 407 kts 310°
2026-04-21 16:49 37.25905 26.29533 35981 ft 407 kts 310°
2026-04-21 16:49 37.29786 26.24340 35987 ft 408 kts 310°
2026-04-21 16:50 37.33673 26.19130 35987 ft 408 kts 310°
2026-04-21 16:50 37.37523 26.13960 35987 ft 408 kts 310°
2026-04-21 16:51 37.41410 26.08733 35987 ft 407 kts 310°
2026-04-21 16:51 37.45281 26.03517 35987 ft 407 kts 310°
2026-04-21 16:52 37.49148 25.98300 35987 ft 407 kts 310°
2026-04-21 16:52 37.52995 25.93101 35987 ft 407 kts 310°
2026-04-21 16:53 37.56626 25.88185 35987 ft 407 kts 310°
2026-04-21 16:53 37.59642 25.84097 35975 ft 407 kts 310°
2026-04-21 16:54 37.63484 25.78882 35950 ft 403 kts 310°
2026-04-21 16:54 37.67288 25.73710 35938 ft 404 kts 310°
2026-04-21 16:55 37.71115 25.68496 35935 ft 404 kts 309°
2026-04-21 16:55 37.74938 25.63281 35935 ft 404 kts 309°
2026-04-21 16:56 37.78763 25.58056 35935 ft 404 kts 309°
2026-04-21 16:56 37.82581 25.52830 35935 ft 404 kts 309°
2026-04-21 16:57 37.86378 25.47624 35936 ft 405 kts 309°
2026-04-21 16:57 37.90194 25.42384 35936 ft 404 kts 309°
2026-04-21 16:58 37.94007 25.37140 35936 ft 404 kts 309°
2026-04-21 16:58 37.97822 25.31884 35935 ft 404 kts 309°
2026-04-21 16:59 38.01604 25.26666 35932 ft 404 kts 309°
2026-04-21 16:59 38.05416 25.21396 35932 ft 404 kts 309°
2026-04-21 17:00 38.09211 25.16142 35933 ft 404 kts 309°
2026-04-21 17:00 38.12374 25.11756 35933 ft 404 kts 309°
2026-04-21 17:01 38.16822 25.05577 35928 ft 405 kts 309°
2026-04-21 17:01 38.20602 25.00321 35924 ft 405 kts 309°
2026-04-21 17:02 38.24877 24.95605 35925 ft 409 kts 319°
2026-04-21 17:02 38.29474 24.91293 35927 ft 410 kts 320°
2026-04-21 17:03 38.34078 24.86997 35923 ft 410 kts 319°
2026-04-21 17:03 38.38676 24.82693 35916 ft 410 kts 319°
2026-04-21 17:04 38.43262 24.78391 35914 ft 410 kts 319°
2026-04-21 17:04 38.47867 24.74062 35914 ft 410 kts 319°
2026-04-21 17:05 38.52438 24.69758 35912 ft 410 kts 319°
2026-04-21 17:05 38.57048 24.65443 35910 ft 410 kts 319°
2026-04-21 17:06 38.61653 24.61119 35720 ft 411 kts 319°
2026-04-21 17:06 38.63957 24.58951 35471 ft 410 kts 319°
2026-04-21 17:06 38.66256 24.56783 35221 ft 410 kts 319°
2026-04-21 17:06 38.68552 24.54618 34970 ft 410 kts 319°
2026-04-21 17:07 38.70061 24.53192 34776 ft 410 kts 319°
2026-04-21 17:07 38.73137 24.50283 33768 ft 411 kts 320°
2026-04-21 17:07 38.75442 24.48102 32815 ft 410 kts 320°
2026-04-21 17:07 38.77738 24.45926 31863 ft 409 kts 320°
2026-04-21 17:08 38.79994 24.43787 30893 ft 408 kts 320°
2026-04-21 17:08 38.82262 24.41634 29897 ft 408 kts 320°
2026-04-21 17:08 38.84559 24.39452 28894 ft 412 kts 320°
2026-04-21 17:08 38.86890 24.37235 27886 ft 417 kts 320°
2026-04-21 17:09 38.91618 24.32734 25863 ft 427 kts 320°
2026-04-21 17:09 38.93981 24.30482 24935 ft 429 kts 320°
2026-04-21 17:09 38.96390 24.28183 24032 ft 429 kts 321°
2026-04-21 17:10 38.98781 24.25900 23363 ft 425 kts 321°
2026-04-21 17:10 39.01144 24.23640 22712 ft 422 kts 321°
2026-04-21 17:10 39.03484 24.21402 22062 ft 418 kts 321°
2026-04-21 17:10 39.05820 24.19166 21407 ft 414 kts 321°
2026-04-21 17:11 39.08122 24.16960 20755 ft 409 kts 321°
2026-04-21 17:11 39.10359 24.14814 20112 ft 403 kts 321°
2026-04-21 17:11 39.12604 24.12659 19420 ft 399 kts 321°
2026-04-21 17:11 39.14831 24.10555 18695 ft 396 kts 322°
2026-04-21 17:12 39.17074 24.08507 17966 ft 392 kts 322°
2026-04-21 17:12 39.19287 24.06492 17241 ft 388 kts 322°
2026-04-21 17:12 39.21478 24.04494 16513 ft 381 kts 322°
2026-04-21 17:12 39.23622 24.02535 15787 ft 374 kts 322°
2026-04-21 17:13 39.25731 24.00607 15059 ft 368 kts 322°
2026-04-21 17:13 39.27802 23.98711 14334 ft 363 kts 322°
2026-04-21 17:13 39.29851 23.96833 13606 ft 358 kts 322°
2026-04-21 17:13 39.31840 23.95009 12890 ft 354 kts 322°
2026-04-21 17:14 39.33850 23.93163 12159 ft 350 kts 322°
2026-04-21 17:14 39.35830 23.91344 11530 ft 345 kts 322°
2026-04-21 17:14 39.37751 23.89577 11148 ft 333 kts 322°
2026-04-21 17:14 39.39608 23.87868 10770 ft 322 kts 322°
2026-04-21 17:15 39.41414 23.86214 10393 ft 313 kts 322°
2026-04-21 17:15 39.43153 23.84625 10021 ft 306 kts 322°
2026-04-21 17:15 39.44869 23.83055 9917 ft 292 kts 322°
2026-04-21 17:15 39.46511 23.81550 9864 ft 286 kts 321°
2026-04-21 17:16 39.48103 23.80089 9857 ft 279 kts 321°
2026-04-21 17:16 39.49682 23.78638 9859 ft 277 kts 321°
2026-04-21 17:16 39.51253 23.77194 9861 ft 279 kts 321°
2026-04-21 17:16 39.52857 23.75717 9861 ft 281 kts 321°
2026-04-21 17:17 39.54435 23.74263 9861 ft 282 kts 321°
2026-04-21 17:17 39.56032 23.72790 9863 ft 282 kts 321°
2026-04-21 17:17 39.57628 23.71317 9868 ft 282 kts 321°
2026-04-21 17:17 39.59237 23.69831 9872 ft 282 kts 321°
2026-04-21 17:18 39.60835 23.68353 9874 ft 283 kts 321°
2026-04-21 17:18 39.62442 23.66867 9875 ft 283 kts 322°
2026-04-21 17:18 39.64050 23.65378 9882 ft 285 kts 321°
2026-04-21 17:18 39.65665 23.63882 9882 ft 284 kts 321°
2026-04-21 17:19 39.67271 23.62394 9883 ft 284 kts 321°
2026-04-21 17:19 39.68886 23.60895 9884 ft 284 kts 321°
2026-04-21 17:19 39.70497 23.59401 9885 ft 285 kts 321°
2026-04-21 17:19 39.72109 23.57904 9886 ft 285 kts 321°
2026-04-21 17:20 39.73707 23.56419 9890 ft 286 kts 322°
2026-04-21 17:20 39.75335 23.54905 9894 ft 286 kts 322°
2026-04-21 17:20 39.76948 23.53405 9894 ft 285 kts 322°
2026-04-21 17:20 39.78566 23.51899 9895 ft 286 kts 322°
2026-04-21 17:21 39.79631 23.50907 9895 ft 286 kts 322°
2026-04-21 17:21 39.81777 23.48906 9895 ft 285 kts 321°
2026-04-21 17:21 39.83385 23.47407 9894 ft 285 kts 321°
2026-04-21 17:21 39.84465 23.46400 9894 ft 285 kts 321°
2026-04-21 17:22 39.86078 23.44893 9883 ft 286 kts 321°
2026-04-21 17:22 39.88248 23.42867 9340 ft 290 kts 322°
2026-04-21 17:22 39.89360 23.41827 9019 ft 289 kts 322°
2026-04-21 17:22 39.90979 23.40313 8547 ft 289 kts 322°
2026-04-21 17:23 39.92609 23.38788 8094 ft 287 kts 322°
2026-04-21 17:23 39.93644 23.37819 7806 ft 286 kts 324°
2026-04-21 17:23 39.94944 23.36602 7443 ft 284 kts 321°
2026-04-21 17:23 39.96526 23.35120 6997 ft 281 kts 321°
2026-04-21 17:24 39.98110 23.33635 6546 ft 279 kts 321°
2026-04-21 17:24 39.99672 23.32169 6174 ft 274 kts 321°
2026-04-21 17:24 40.01202 23.30734 5847 ft 268 kts 321°
2026-04-21 17:24 40.02702 23.29326 5518 ft 262 kts 321°
2026-04-21 17:25 40.04174 23.27953 5191 ft 257 kts 321°
2026-04-21 17:25 40.05618 23.26604 4862 ft 252 kts 321°
2026-04-21 17:25 40.07029 23.25282 4536 ft 248 kts 321°
2026-04-21 17:25 40.08399 23.23995 4213 ft 244 kts 321°
2026-04-21 17:26 40.09783 23.22693 3882 ft 240 kts 322°
2026-04-21 17:26 40.11111 23.21445 3559 ft 236 kts 322°
2026-04-21 17:26 40.12440 23.20199 3232 ft 233 kts 322°
2026-04-21 17:26 40.13745 23.18971 2905 ft 229 kts 322°
2026-04-21 17:27 40.15031 23.17760 2579 ft 226 kts 322°
2026-04-21 17:27 40.16303 23.16559 2251 ft 223 kts 322°
2026-04-21 17:27 40.17551 23.15380 1925 ft 220 kts 322°
2026-04-21 17:27 40.18786 23.14211 1622 ft 217 kts 322°
2026-04-21 17:28 40.19995 23.13066 1348 ft 217 kts 322°
2026-04-21 17:28 40.21225 23.11900 1259 ft 219 kts 322°
2026-04-21 17:28 40.22445 23.10742 1301 ft 213 kts 322°
2026-04-21 17:28 40.23629 23.09620 1340 ft 207 kts 322°
2026-04-21 17:29 40.24781 23.08526 1336 ft 202 kts 322°
2026-04-21 17:29 40.25915 23.07450 1329 ft 197 kts 322°
2026-04-21 17:29 40.27010 23.06411 1334 ft 196 kts 322°
2026-04-21 17:29 40.28119 23.05356 1338 ft 193 kts 322°
2026-04-21 17:30 40.29214 23.04412 1338 ft 187 kts 331°
2026-04-21 17:30 40.30439 23.03873 1338 ft 186 kts 345°
2026-04-21 17:30 40.31691 23.03523 1346 ft 184 kts 346°
2026-04-21 17:30 40.32936 23.03147 1356 ft 181 kts 345°
2026-04-21 17:31 40.34150 23.02767 1361 ft 177 kts 345°
2026-04-21 17:31 40.35313 23.02398 1381 ft 171 kts 345°
2026-04-21 17:31 40.36459 23.02033 1357 ft 167 kts 345°
2026-04-21 17:31 40.37582 23.01676 1342 ft 162 kts 345°
2026-04-21 17:32 40.38662 23.01331 1341 ft 159 kts 345°
2026-04-21 17:32 40.39730 23.00991 1347 ft 158 kts 345°
2026-04-21 17:32 40.40815 23.00645 1363 ft 159 kts 345°
2026-04-21 17:32 40.42037 23.00256 1361 ft 157 kts 345°
2026-04-21 17:33 40.43091 22.99920 1362 ft 156 kts 345°
2026-04-21 17:33 40.44136 22.99587 1380 ft 153 kts 344°
2026-04-21 17:33 40.45152 22.99263 1420 ft 148 kts 344°
2026-04-21 17:33 40.46153 22.98945 1360 ft 148 kts 345°
2026-04-21 17:34 40.47154 22.98625 1093 ft 147 kts 345°
2026-04-21 17:34 40.48140 22.98311 838 ft 145 kts 345°
2026-04-21 17:34 40.49104 22.98003 582 ft 142 kts 345°
2026-04-21 17:34 40.50065 22.97693 285 ft 141 kts 345°
2026-04-21 17:35 40.51031 22.97384 38 ft 143 kts 346°
2026-04-21 17:35 40.51920 22.97105 15 ft 108 kts 346°
2026-04-21 17:35 40.52463 22.96932 15 ft 57 kts 345°
2026-04-21 17:35 40.52641 22.96891 15 ft 15 kts 30°
2026-04-21 17:36 40.52677 22.96961 15 ft 0 kts 72°
2026-04-21 17:36 40.52684 22.97009 15 ft 11 kts 99°
2026-04-21 17:36 40.52604 22.97074 15 ft 13 kts 166°
2026-04-21 17:37 40.52564 22.97087 15 ft 8 kts 166°
2026-04-21 17:37 40.52465 22.97118 15 ft 15 kts 166°
2026-04-21 17:37 40.52417 22.97135 15 ft 11 kts 159°
2026-04-21 17:37 40.52386 22.97212 15 ft 5 kts 55°
2026-04-21 17:38 40.52406 22.97231 15 ft 2 kts 24°
2026-04-21 17:38 40.52446 22.97234 15 ft 6 kts 351°
2026-04-21 17:38 40.52464 22.97235 15 ft 0 kts
2026-04-21 17:38 40.52482 22.97246 15 ft 6 kts 44°
2026-04-21 17:39 40.52504 22.97280 15 ft 3 kts 66°
2026-04-21 17:39 40.52519 22.97322 15 ft 0 kts 47°